KO4FR Weather Reports


Display with metric or nautical units.
time (UTC)temp
F
wind
direction
speed
MPH
gust
MPH
rain 1hr
in
rain 24hr
in
rain mn
in
humidity
%
barometer
mb
20260510152459 79 134 0.0 2.0 0.00 0.00 0.00 40 1015.9
20260510151959 79 119 0.0 0.0 0.00 0.00 0.00 42 1015.9
20260510151459 78 119 0.0 0.0 0.00 0.00 0.00 39 1016.0
20260510150958 78 119 0.0 2.0 0.00 0.00 0.00 43 1016.0
20260510150458 78 120 0.0 2.0 0.00 0.00 0.00 37 1016.1
20260510145958 77 121 0.0 0.0 0.00 0.00 0.00 42 1016.0
20260510145457 77 121 0.0 0.0 0.00 0.00 0.00 45 1016.0
20260510144956 77 121 0.0 0.0 0.00 0.00 0.00 46 1016.0
20260510144456 76 121 0.0 0.0 0.00 0.00 0.00 46 1015.9
20260510143955 76 126 0.0 0.0 0.00 0.00 0.00 45 1015.9
20260510143454 76 126 0.0 0.0 0.00 0.00 0.00 47 1016.0
20260510142955 76 104 0.0 2.0 0.00 0.00 0.00 47 1016.0
20260510142454 76 104 0.0 2.0 0.00 0.00 0.00 49 1015.9
20260510141953 75 113 0.0 0.0 0.00 0.00 0.00 54 1015.7
20260510141453 75 114 0.0 0.0 0.00 0.00 0.00 47 1015.8
20260510140952 74 108 0.0 0.0 0.00 0.00 0.00 51 1015.7
20260510140453 74 103 0.0 0.0 0.00 0.00 0.00 52 1015.8
20260510135952 73 115 0.0 0.0 0.00 0.00 0.00 54 1015.8
20260510135452 73 120 0.0 0.0 0.00 0.00 0.00 54 1015.8
20260510134951 72 111 0.0 0.0 0.00 0.00 0.00 56 1015.9
20260510134451 72 123 0.0 0.0 0.00 0.00 0.00 62 1015.9
20260510133950 71 122 0.0 0.0 0.00 0.00 0.00 62 1015.9
20260510133450 71 128 0.0 0.0 0.00 0.00 0.00 62 1015.8
20260510132949 70 128 0.0 0.0 0.00 0.00 0.00 63 1015.9
20260510132449 69 128 0.0 2.0 0.00 0.00 0.00 65 1015.8
20260510131949 69 128 0.0 2.0 0.00 0.00 0.00 65 1015.9
20260510131447 69 120 0.0 0.0 0.00 0.00 0.00 67 1016.0
20260510130947 68 116 0.0 0.0 0.00 0.00 0.00 67 1015.9
20260510130517 67 116 0.0 0.0 0.00 0.00 0.00 67 1015.8
20260510125946 67 115 0.0 0.0 0.00 0.00 0.00 66 1015.7
20260510125446 67 115 0.0 0.0 0.00 0.00 0.00 66 1015.7
20260510125016 66 115 0.0 0.0 0.00 0.00 0.00 64 1015.7
20260510124445 66 115 0.0 0.0 0.00 0.00 0.00 62 1015.7
20260510123945 65 113 0.0 0.0 0.00 0.00 0.00 58 1015.6
20260510123514 64 121 0.0 0.0 0.00 0.00 0.00 48 1015.5
20260510123014 63 121 0.0 0.0 0.00 0.00 0.00 31 1015.5
20260510122513 62 134 0.0 0.0 0.00 0.00 0.00 15 1015.4
20260510122013 62 104 0.0 0.0 0.00 0.00 0.00 100 1015.3
20260510121513 61 104 0.0 0.0 0.00 0.00 0.00 100 1015.2
20260510120942 61 113 0.0 0.0 0.00 0.00 0.00 100 1015.1
20260510120512 60 124 0.0 0.0 0.00 0.00 0.00 100 1015.1
20260510120011 60 111 0.0 0.0 0.00 0.00 0.00 100 1015.0
20260510115511 59 111 0.0 0.0 0.00 0.00 0.00 100 1015.0
20260510115010 58 111 0.0 0.0 0.00 0.00 0.00 100 1015.0
20260510114509 57 111 0.0 0.0 0.00 0.00 0.00 100 1014.9
20260510114009 57 111 0.0 0.0 0.00 0.00 0.00 100 1014.9
20260510113509 56 111 0.0 0.0 0.00 0.00 0.00 100 1014.8
20260510113009 55 111 0.0 0.0 0.00 0.00 0.00 100 1014.7
20260510112508 55 111 0.0 0.0 0.00 0.00 0.00 100 1014.6
20260510112008 54 111 0.0 0.0 0.00 0.00 0.00 100 1014.4
20260510111508 53 111 0.0 0.0 0.00 0.00 0.00 100 1014.2
20260510111007 53 111 0.0 0.0 0.00 0.00 0.00 2 1014.2
20260510110507 53 111 0.0 0.0 0.00 0.00 0.00 4 1014.2
20260510110006 53 111 0.0 0.0 0.00 0.00 0.00 5 1014.1
20260510105506 53 111 0.0 0.0 0.00 0.00 0.00 5 1014.0
20260510105006 53 111 0.0 0.0 0.00 0.00 0.00 5 1014.0
20260510104505 53 111 0.0 0.0 0.00 0.00 0.00 6 1013.9
20260510104005 53 111 0.0 0.0 0.00 0.00 0.00 9 1013.7
20260510103504 54 111 0.0 0.0 0.00 0.00 0.00 7 1013.6
20260510103004 54 111 0.0 0.0 0.00 0.00 0.00 7 1013.6
20260510102504 54 111 0.0 0.0 0.00 0.00 0.00 8 1013.5
20260510102004 54 111 0.0 0.0 0.00 0.00 0.00 7 1013.4
20260510101503 55 111 0.0 0.0 0.00 0.00 0.00 7 1013.4
20260510101003 55 111 0.0 0.0 0.00 0.00 0.00 6 1013.4
20260510100503 55 111 0.0 0.0 0.00 0.00 0.00 5 1013.4
20260510100003 56 111 0.0 0.0 0.00 0.00 0.00 4 1013.3
20260510095502 56 111 0.0 0.0 0.00 0.00 0.00 4 1013.5
20260510095001 56 111 0.0 0.0 0.00 0.00 0.00 3 1013.4
20260510094501 56 111 0.0 0.0 0.00 0.00 0.00 2 1013.3
20260510094000 57 111 0.0 0.0 0.00 0.00 0.00 1 1013.3
20260510093500 57 111 0.0 0.0 0.00 0.00 0.00 100 1013.2
20260510093000 57 111 0.0 0.0 0.00 0.00 0.00 100 1013.1
20260510092459 57 111 0.0 0.0 0.00 0.00 0.00 100 1013.0
20260510091958 57 111 0.0 0.0 0.00 0.00 0.00 100 1012.9
20260510091458 57 111 0.0 0.0 0.00 0.00 0.00 1 1012.9
20260510090958 57 111 0.0 0.0 0.00 0.00 0.00 1 1012.8
20260510090457 57 111 0.0 0.0 0.00 0.00 0.00 100 1012.7
20260510085957 57 111 0.0 0.0 0.00 0.00 0.00 1 1012.7
20260510085457 57 114 0.0 0.0 0.00 0.00 0.00 3 1012.6
20260510084956 57 114 0.0 0.0 0.00 0.00 0.00 3 1012.5
20260510084456 57 114 0.0 0.0 0.00 0.00 0.00 2 1012.4
20260510083955 57 114 0.0 0.0 0.00 0.00 0.00 1 1012.4
20260510083455 57 114 0.0 0.0 0.00 0.00 0.00 2 1012.3
20260510082954 57 114 0.0 0.0 0.00 0.00 0.00 3 1012.3
20260510082454 57 113 0.0 0.0 0.00 0.00 0.00 5 1012.2
20260510081953 57 114 0.0 0.0 0.00 0.00 0.00 4 1012.1
20260510081453 57 114 0.0 0.0 0.00 0.00 0.00 4 1012.2
20260510080952 57 114 0.0 0.0 0.00 0.00 0.00 3 1012.1
20260510080453 57 113 0.0 0.0 0.00 0.00 0.00 4 1012.1
20260510075951 57 113 0.0 0.0 0.00 0.00 0.00 5 1012.2
20260510075452 57 114 0.0 0.0 0.00 0.00 0.00 8 1012.1
20260510074951 57 114 0.0 0.0 0.00 0.00 0.00 9 1012.1
20260510074450 57 113 0.0 0.0 0.00 0.00 0.00 11 1012.0
20260510073950 57 113 0.0 0.0 0.00 0.00 0.00 10 1012.0
20260510073450 57 113 0.0 0.0 0.00 0.00 0.00 12 1012.1
20260510072949 58 113 0.0 0.0 0.00 0.00 0.00 11 1012.2
20260510072448 58 113 0.0 0.0 0.00 0.00 0.00 9 1012.2
20260510071948 58 113 0.0 0.0 0.00 0.00 0.00 7 1012.1
20260510071448 58 113 0.0 0.0 0.00 0.00 0.00 8 1012.0
20260510070948 58 113 0.0 0.0 0.00 0.00 0.00 8 1012.1
20260510070447 58 113 0.0 0.0 0.00 0.00 0.00 9 1012.0
20260510070016 58 113 0.0 0.0 0.00 0.00 0.00 11 1012.0
20260510065516 58 113 0.0 0.0 0.00 0.00 0.00 14 1012.0
20260510065016 58 113 0.0 0.0 0.00 0.00 0.00 15 1012.0
20260510064445 59 113 0.0 0.0 0.00 0.00 0.00 16 1012.1
20260510063945 59 113 0.0 0.0 0.00 0.00 0.00 10 1012.2
20260510063444 59 113 0.0 0.0 0.00 0.00 0.00 9 1012.3
20260510062944 59 113 0.0 0.0 0.00 0.00 0.00 10 1012.4
20260510062514 59 113 0.0 0.0 0.00 0.00 0.00 16 1012.4
20260510062013 59 113 0.0 0.0 0.00 0.00 0.00 24 1012.4
20260510061512 60 113 0.0 0.0 0.00 0.00 0.00 26 1012.3
20260510061012 60 113 0.0 0.0 0.00 0.00 0.00 23 1012.4
20260510060511 60 113 0.0 0.0 0.00 0.00 0.00 20 1012.5
20260510060011 60 113 0.0 0.0 0.00 0.00 0.00 21 1012.6
20260510055510 60 113 0.0 0.0 0.00 0.00 0.00 24 1012.7
20260510055010 60 113 0.0 0.0 0.00 0.00 0.00 29 1012.6
20260510054509 61 113 0.0 0.0 0.00 0.00 0.00 34 1012.6
20260510054008 61 113 0.0 0.0 0.00 0.00 0.00 34 1012.6
20260510053509 61 113 0.0 0.0 0.00 0.00 0.00 36 1012.8
20260510053009 62 113 0.0 0.0 0.00 0.00 0.00 38 1012.7
20260510052509 62 113 0.0 0.0 0.00 0.00 0.00 38 1012.7
20260510052008 62 113 0.0 0.0 0.00 0.00 0.00 36 1012.7
20260510051508 62 113 0.0 0.0 0.00 0.00 0.00 38 1012.8
20260510051009 62 104 0.0 0.0 0.00 0.00 0.00 39 1012.8
20260510050508 62 104 0.0 0.0 0.00 0.00 0.00 39 1012.9
20260510050009 62 104 0.0 0.0 0.00 0.00 0.00 39 1012.9
20260510045509 62 104 0.0 0.0 0.00 0.00 0.00 39 1013.0
20260510045008 62 103 0.0 0.0 0.00 0.00 0.00 44 1012.9
20260510044508 63 103 0.0 0.0 0.00 0.00 0.00 45 1012.8
20260510044008 63 103 0.0 0.0 0.00 0.00 0.00 45 1012.9
20260510043508 63 103 0.0 0.0 0.00 0.00 0.00 47 1012.9
20260510043008 63 103 0.0 0.0 0.00 0.00 0.00 47 1012.8
20260510042508 63 103 0.0 0.0 0.00 0.00 0.00 43 1012.8
20260510042008 63 103 0.0 0.0 0.00 0.00 0.00 44 1012.7
20260510041508 63 103 0.0 0.0 0.00 0.00 0.00 47 1012.8
20260510041008 63 103 0.0 0.0 0.00 0.00 0.00 51 1012.8
20260510040508 63 103 0.0 0.0 0.00 0.00 0.00 48 1012.7
20260510040008 63 103 0.0 0.0 0.00 0.00 0.00 48 1012.6
20260510035508 63 103 0.0 0.0 0.00 0.00 0.00 50 1012.6
20260510035008 63 103 0.0 0.0 0.00 0.00 0.00 54 1012.5
20260510034508 64 103 0.0 0.0 0.00 0.00 0.00 54 1012.5
20260510034008 64 103 0.0 0.0 0.00 0.00 0.00 55 1012.5
20260510033508 64 103 0.0 0.0 0.00 0.00 0.00 59 1012.4
20260510033007 64 103 0.0 0.0 0.00 0.00 0.00 58 1012.3
20260510032508 65 103 0.0 0.0 0.00 0.00 0.00 60 1012.3
20260510032008 65 103 0.0 0.0 0.00 0.00 0.00 61 1012.3
20260510031507 65 103 0.0 0.0 0.00 0.00 0.00 61 1012.3
20260510031007 65 103 0.0 0.0 0.00 0.00 0.00 61 1012.2
20260510030508 65 103 0.0 0.0 0.00 0.00 0.00 62 1012.2
20260510030008 65 103 0.0 0.0 0.00 0.00 0.00 62 1012.3
20260510025508 65 103 0.0 0.0 0.00 0.00 0.00 63 1012.3
20260510025008 65 101 0.0 0.0 0.00 0.00 0.00 63 1012.3
20260510024507 65 101 0.0 0.0 0.00 0.00 0.00 64 1012.3
20260510024007 65 101 0.0 0.0 0.00 0.00 0.00 64 1012.3
20260510023507 65 101 0.0 0.0 0.00 0.00 0.00 64 1012.2
20260510023007 65 99 0.0 0.0 0.00 0.00 0.00 65 1012.2
20260510022508 66 101 0.0 0.0 0.00 0.00 0.00 65 1012.2
20260510022007 66 104 0.0 0.0 0.00 0.00 0.00 66 1012.1
20260510021507 66 102 0.0 0.0 0.00 0.00 0.00 66 1012.0
20260510021007 66 96 0.0 0.0 0.00 0.00 0.00 66 1011.9
20260510020507 66 101 0.0 0.0 0.00 0.00 0.00 67 1011.9
20260510020007 66 101 0.0 0.0 0.00 0.00 0.00 67 1011.8
20260510015507 66 101 0.0 0.0 0.00 0.00 0.00 67 1011.8
20260510015007 66 101 0.0 0.0 0.00 0.00 0.00 67 1011.6
20260510014507 66 101 0.0 0.0 0.00 0.00 0.00 67 1011.4
20260510014007 66 101 0.0 0.0 0.00 0.00 0.00 68 1011.4
20260510013507 66 101 0.0 0.0 0.00 0.00 0.00 68 1011.4
20260510013007 66 101 0.0 0.0 0.00 0.00 0.00 68 1011.2
20260510012507 66 101 0.0 0.0 0.00 0.00 0.00 68 1011.2
20260510012007 66 101 0.0 0.0 0.00 0.00 0.00 68 1011.0
20260510011507 66 101 0.0 0.0 0.00 0.00 0.00 68 1011.1
20260510011007 67 101 0.0 0.0 0.00 0.00 0.00 68 1011.0
20260510010507 66 101 0.0 0.0 0.00 0.00 0.00 68 1011.1
20260510010007 67 101 0.0 0.0 0.00 0.00 0.00 68 1011.0
20260510005507 67 101 0.0 0.0 0.00 0.00 0.00 68 1010.8
20260510005007 67 100 0.0 0.0 0.00 0.00 0.00 68 1010.9
20260510004507 67 100 0.0 0.0 0.00 0.00 0.00 67 1010.9
20260510004006 67 100 0.0 0.0 0.00 0.00 0.00 67 1010.8
20260510003507 68 100 0.0 0.0 0.00 0.00 0.00 67 1010.7
20260510003006 68 100 0.0 0.0 0.00 0.00 0.00 67 1010.8
20260510002506 68 100 0.0 0.0 0.00 0.00 0.00 67 1010.6
20260510002005 68 100 0.0 0.0 0.00 0.00 0.00 67 1010.7
20260510001506 69 100 0.0 0.0 0.00 0.00 0.00 66 1010.6
20260510001005 69 100 0.0 0.0 0.00 0.00 0.00 65 1010.5
20260510000504 69 100 0.0 0.0 0.00 0.00 0.00 65 1010.4
20260510000004 70 100 0.0 0.0 0.00 0.00 0.00 64 1010.3
20260509235503 70 100 0.0 0.0 0.00 0.00 0.00 64 1010.1
20260509235003 70 100 0.0 0.0 0.00 0.00 0.00 63 1010.1
20260509234503 71 100 0.0 0.0 0.00 0.00 0.00 62 1010.1
20260509234002 71 100 0.0 0.0 0.00 0.00 0.00 62 1010.0
20260509233502 71 100 0.0 0.0 0.00 0.00 0.00 61 1009.9
20260509233001 71 100 0.0 0.0 0.00 0.00 0.00 61 1010.0
20260509232501 72 100 0.0 0.0 0.00 0.00 0.00 60 1010.0
20260509232000 72 100 0.0 0.0 0.00 0.00 0.00 60 1009.9
20260509231500 72 100 0.0 0.0 0.00 0.00 0.00 58 1009.8
20260509231000 72 100 0.0 0.0 0.00 0.00 0.00 58 1009.8
20260509230459 73 100 0.0 2.0 0.00 0.00 0.00 58 1009.9
20260509225958 73 99 0.0 4.0 0.00 0.00 0.00 56 1009.9
20260509225458 74 104 0.0 4.0 0.00 0.00 0.00 55 1009.8
20260509224958 74 101 0.0 0.0 0.00 0.00 0.00 55 1009.9
20260509224458 74 111 0.0 2.0 0.00 0.00 0.00 54 1009.9
20260509223958 75 119 0.0 2.0 0.00 0.00 0.00 53 1009.8
20260509223456 75 86 0.0 0.0 0.00 0.00 0.00 54 1009.8
20260509222956 75 99 0.0 0.0 0.00 0.00 0.00 54 1009.9
20260509222456 75 76 0.0 0.0 0.00 0.00 0.00 53 1009.9
20260509221955 75 104 0.0 2.0 0.00 0.00 0.00 53 1009.9
20260509221455 75 115 0.0 2.0 0.00 0.00 0.00 53 1009.9
20260509220955 75 113 0.0 0.0 0.00 0.00 0.00 52 1009.9
20260509220454 75 102 0.0 2.0 0.00 0.00 0.00 53 1009.8
20260509215954 76 113 0.0 2.0 0.00 0.00 0.00 52 1009.8
20260509215454 76 126 1.0 2.0 0.00 0.00 0.00 51 1009.7
20260509214953 75 123 0.0 4.0 0.00 0.00 0.00 51 1009.6
20260509214452 76 106 0.0 4.0 0.00 0.00 0.00 52 1009.5
20260509213952 75 120 0.0 2.0 0.00 0.00 0.00 52 1009.5
20260509213452 74 113 0.0 2.0 0.00 0.00 0.00 54 1009.6
20260509212951 74 100 0.0 2.0 0.00 0.00 0.00 54 1009.5
20260509212450 75 103 0.0 2.0 0.00 0.00 0.00 53 1009.6
20260509211950 76 120 0.0 2.0 0.00 0.00 0.00 52 1009.5
20260509211450 76 108 0.0 0.0 0.00 0.00 0.00 54 1009.6
20260509210949 76 98 0.0 2.0 0.00 0.00 0.00 51 1009.4
20260509210449 76 66 0.0 2.0 0.00 0.00 0.00 52 1009.5
20260509205949 76 130 0.0 2.0 0.00 0.00 0.00 51 1009.6
20260509205448 75 102 0.0 2.0 0.00 0.00 0.00 52 1009.7
20260509204948 74 123 0.0 2.0 0.00 0.00 0.00 53 1009.5
20260509204518 74 119 0.0 2.0 0.00 0.00 0.00 55 1009.6
20260509204017 73 101 0.0 0.0 0.00 0.00 0.00 54 1009.7
20260509203447 73 107 0.0 2.0 0.00 0.00 0.00 54 1009.7
20260509202946 73 100 0.0 2.0 0.00 0.00 0.00 53 1009.7
20260509202446 74 90 0.0 4.0 0.00 0.00 0.00 51 1009.8
20260509202015 74 105 0.0 4.0 0.00 0.00 0.00 50 1009.8
20260509201444 75 130 1.0 2.0 0.00 0.00 0.00 49 1009.8
20260509200944 76 107 0.0 2.0 0.00 0.00 0.00 49 1009.8
20260509200514 76 115 0.0 2.0 0.00 0.00 0.00 49 1009.7
20260509200013 76 106 0.0 2.0 0.00 0.00 0.00 46 1009.7
20260509195513 76 107 0.0 2.0 0.00 0.00 0.00 47 1009.8
20260509195013 77 84 0.0 2.0 0.00 0.00 0.00 49 1009.8
20260509194512 76 90 0.0 0.0 0.00 0.00 0.00 49 1009.8
20260509194011 75 92 0.0 6.0 0.00 0.00 0.00 49 1009.8
20260509193511 76 94 0.0 6.0 0.00 0.00 0.00 48 1010.0
20260509193011 76 98 0.0 6.0 0.00 0.00 0.00 50 1010.0
20260509192510 76 104 0.0 6.0 0.00 0.00 0.00 50 1010.1
20260509192010 76 117 0.0 8.0 0.00 0.00 0.00 50 1010.1
20260509191509 76 128 0.0 8.0 0.00 0.00 0.00 49 1010.3
20260509191009 76 93 0.0 4.0 0.00 0.00 0.00 49 1010.3
20260509190508 75 105 0.0 4.0 0.00 0.00 0.00 51 1010.4
20260509190008 76 103 0.0 4.0 0.00 0.00 0.00 50 1010.5
20260509185508 76 109 0.0 4.0 0.00 0.00 0.00 50 1010.5
20260509185007 75 104 1.0 4.0 0.00 0.00 0.00 52 1010.5
20260509184506 74 111 0.0 6.0 0.00 0.00 0.00 52 1010.7
20260509184007 73 150 1.0 6.0 0.00 0.00 0.00 55 1010.7
20260509183506 74 100 0.0 4.0 0.00 0.00 0.00 52 1010.8
20260509183005 74 119 0.0 6.0 0.00 0.00 0.00 52 1010.8
20260509182506 74 117 2.0 6.0 0.00 0.00 0.00 52 1011.0
20260509182005 74 98 0.0 4.0 0.00 0.00 0.00 57 1010.9
20260509181504 74 126 1.0 4.0 0.00 0.00 0.00 54 1011.0
20260509181004 74 103 0.0 4.0 0.00 0.00 0.00 53 1011.1
20260509180504 74 102 0.0 4.0 0.00 0.00 0.00 53 1011.2
20260509180004 74 104 0.0 4.0 0.00 0.00 0.00 55 1011.0
20260509175503 73 94 0.0 4.0 0.00 0.00 0.00 54 1011.2
20260509175003 73 107 0.0 2.0 0.00 0.00 0.00 55 1011.2
20260509174502 74 111 0.0 4.0 0.00 0.00 0.00 54 1011.2
20260509174002 72 80 0.0 4.0 0.00 0.00 0.00 56 1011.3
20260509173501 72 107 0.0 4.0 0.00 0.00 0.00 56 1011.5
20260509173001 73 108 0.0 4.0 0.00 0.00 0.00 55 1011.4
20260509172500 74 88 0.0 6.0 0.00 0.00 0.00 52 1011.4
20260509172000 73 111 0.0 6.0 0.00 0.00 0.00 53 1011.4
20260509171500 73 115 1.0 2.0 0.00 0.00 0.00 53 1011.5
20260509170959 72 110 0.0 4.0 0.00 0.00 0.00 56 1011.4
20260509170459 72 104 0.0 4.0 0.00 0.00 0.00 54 1011.5
20260509165959 73 109 0.0 4.0 0.00 0.00 0.00 52 1011.6
20260509165458 73 142 0.0 2.0 0.00 0.00 0.00 53 1011.4
20260509164957 72 113 0.0 2.0 0.00 0.00 0.00 55 1011.6
20260509164457 72 113 0.0 2.0 0.00 0.00 0.00 53 1011.8
20260509163957 73 107 0.0 4.0 0.00 0.00 0.00 53 1011.9
20260509163457 73 98 0.0 4.0 0.00 0.00 0.00 53 1011.8
20260509162956 73 98 0.0 4.0 0.00 0.00 0.00 54 1012.0
20260509162456 73 107 0.0 4.0 0.00 0.00 0.00 52 1012.0
20260509161955 73 96 0.0 4.0 0.00 0.00 0.00 52 1012.1
20260509161454 72 105 0.0 2.0 0.00 0.00 0.00 55 1012.2
20260509160955 72 115 0.0 2.0 0.00 0.00 0.00 53 1012.2
20260509160454 71 114 0.0 2.0 0.00 0.00 0.00 58 1012.1
20260509155953 71 103 0.0 6.0 0.00 0.00 0.00 56 1012.3
20260509155453 71 106 0.0 6.0 0.00 0.00 0.00 56 1012.1
20260509154952 70 104 0.0 2.0 0.00 0.00 0.00 56 1012.2
20260509154452 71 101 0.0 2.0 0.00 0.00 0.00 56 1012.2
20260509153951 71 107 0.0 2.0 0.00 0.00 0.00 55 1012.4
20260509153451 71 116 0.0 2.0 0.00 0.00 0.00 58 1012.5
20260509152951 71 103 0.0 2.0 0.00 0.00 0.00 59 1012.5